Location: C.E.K. Mees Observatory
(42.7003°N, 77.4088°W)
Time: 11:39:40
(UTC-04:00)

ISS - Pass Details

Date: 15 October 2017
Orbit: 401 x 408 km, 51.6° (Epoch: 23 October)

Event Time Altitude Azimuth Distance (km) Brightness Sun altitude
Rises 20:09:58 0° 288° (WNW) 2,323 1.5 -19.7°
Reaches altitude 10° 20:12:44 10° 263° (W) 1,460 0.1 -20.2°
Maximum altitude 20:14:35 14° 228° (SW) 1,224 -0.9 -20.5°
Drops below altitude 10° 20:16:26 10° 194° (SSW) 1,456 -1.0 -20.9°
Enters shadow 20:16:43 - 190° (S) 1,523 -0.9 -20.9°
